Showing default

FIRST-MOVE, 39439

Orbit data source: Space-Track

FIRST-MOVE, 39439 is a payload satellite owned by TU Munchen (DE) in SSO that was launched on Thu, 21 Nov 2013 UTC via a DNEPR launch vehicle from the Orenburg, Russia (OREN). Payload-class satellites include a variety of spacecraft equipped with specific instruments for various scientific and technological missions. These include communications satellites like Starlink; space stations such as the ISS; scientific satellites like the Hubble; Earth observation satellites from companies like Planet Labs, Umbra, and HawkEye 360; GPS; miniature CubeSats for education and research; and military/defense satellites.

Loading next visibility...
Identifier
39439, 2013-066Z
Orbit
SSO
Country
Flag of DEDE / GER
Related business
Manufacturer
TU Munchen
Mission
Operational Amateur Technology
Bus & Motor
CUBESAT 1U, Unknown motor
Mass
0.917 kg wet, 0.917 kg dry
Launch date (UTC)
2013-11-21 (12 years ago)
Launch vehicle
DNEPR
Launch site
Orenburg, Russia (OREN)
Object type
Payload
Rocket body
Debris
Shape & HBR
Box + 2 Pan, 0.1 m
Radar Cross Section
0.022 m², Small (<0.1 m²)

Expand to show TLE details & history
Last TLE update: 15 hours ago

TLE from 15 hours ago
0 FIRST-MOVE
1 39439U 13066Z   26037.41632606  .00522210  00000-0  27872-2 0  9990
2 39439  97.7437  32.2140 0012032 158.7672 201.4095 15.78919337662214
Epoch: 2026-02-06T09:59Z
TLE epoch observation values (Epoch: 2026-02-06T09:59:30.571Z)
Latitude
-0.00009°
Longitude
105.78212°
Altitude
344.182 km
Speed
7.698 km/s
True Right ascension
02h 08m 51s
True Declination
0° 00' 00"
Sunlit
Object was in daylight at epoch
Visualization orbit readout
Latitude
Unknown
Longitude
Unknown
Altitude
Unknown
Speed
Unknown
Apparent Right ascension
Unknown
Apparent Declination
Unknown
Sunlit
N/A
Visualization observer readout
Local Sidereal Time
02:42:22
Azimuth
Unknown
Elevation
Unknown
Doppler factor
Unknown
Orbital elements
Apogee altitude
338.476 km
Perigee altitude
322.333 km
Semi-major axis
6,708.541 km
Eccentricity
0.0012
Inclination
97.7437°
RAAN
32.214°
Arg. of periapsis
158.7672°
True anomaly
201.35924°
Mean anomaly
201.4095°
Eccentric anomaly
201.38436°
Mean motion
3.95004 °/min
Orbital period
91.14 mins
BSTAR
0.0027872
Loading maneuver chart data...
Computing Atmospheric mass density...
Loading historical data...
Loading historical data...
Loading historical data...
Loading historical data...
Loading historical data...
Loading historical data...
Loading historical data...

Documentation

Showing up to 5 results
|